Tracking 29892 objects as of 21-Nov-2024
HD Live streaming from Space Station
objects crossing your sky now

SPIRIT

Track SPIRIT now!
10-day predictions
SPIRIT is classified as:


NORAD ID: 58468
Int'l Code: 2023-185G
Perigee: 482.2 km
Apogee: 498.8 km
Inclination: 97.4 °
Period: 94.3 minutes
Semi major axis: 6861 km
RCS: Unknown
Launch date: December 1, 2023
Source: Australia (AUS)
Launch site: AIR FORCE WESTERN TEST RANGE (AFWTR)

Uplink (MHz):
Downlink (MHz): 401.895
Beacon (MHz):
Mode: 9600bps FSK
Call sign:
Status: Active

Your satellite tracking list
Your tracking list is empty




NASA's NSSDC Master Catalog

Two Line Element Set (TLE):
1 58468U 23185G   24326.15108108  .00022218  00000-0  82577-3 0  9998
2 58468  97.4058  30.4766 0012079  93.5610 266.7011 15.27480051 54000
Source of the keplerian elements: AFSPC